Tracking 33723 objects as of 10-Apr-2026
HD Live streaming from Space Station
objects crossing your sky now

COSMOS 1057

Track COSMOS 1057 now!
10-day predictions
COSMOS 1057 is classified as:


NORAD ID: 11134
Int'l Code: 1978-109G
Perigee: 1,487.0 km
Apogee: 1,522.5 km
Inclination: 74.0 °
Period: 115.9 minutes
Semi major axis: 7875 km
RCS: 0.7046 m2 (medium)
Launch date: December 5, 1978
Source: Commonwealth of Independent States (former USSR) (CIS)
Launch site: PLESETSK MISSILE AND SPACE COMPLEX (PKMTR)
Your satellite tracking list
Your tracking list is empty




NASA's NSSDC Master Catalog

Two Line Element Set (TLE):
1 11134U 78109G   26100.17286424 -.00000009  00000-0  46802-4 0  9992
2 11134  74.0204  18.6188 0022518 210.7402 302.4251 12.42129741146792
Source of the keplerian elements: AFSPC